• In Deutschland
  • Länderverzeichnis
  • Für 7 Tage
  • Wassertemperatur
  • Satellitenkarten
  • Wetterkarte
  • Widgets
  • user-avatar
    Anmelden

    Stündliche Wetter Nidderau

    Heute, 11 Dezember, Montag

    Zeit Temperatur Niederschläge Wind Luftdruck Luftfeuchtigkeit
    00:00 +4°C° 0,7 mm 6 m/S 724 mmHg 90%
    01:00 +4°C° 0,7 mm 6 m/S 724 mmHg 90%
    02:00 +5°C° 0,3 mm 5 m/S 725 mmHg 92%
    03:00 +4°C° 0,3 mm 4 m/S 725 mmHg 93%
    04:00 +4°C° 0,3 mm 3 m/S 726 mmHg 95%
    05:00 +4°C° 0,1 mm 2 m/S 726 mmHg 95%
    06:00 +4°C° 0,1 mm 2 m/S 726 mmHg 96%
    07:00 +4°C° 0,1 mm 1 m/S 725 mmHg 97%
    08:00 +4°C° 1,3 mm 2 m/S 725 mmHg 97%
    09:00 +4°C° 1,3 mm 2 m/S 725 mmHg 96%
    10:00 +3°C° 1,3 mm 3 m/S 725 mmHg 96%
    11:00 +3°C° 2,1 mm 3 m/S 724 mmHg 95%
    12:00 +3°C° 2,1 mm 4 m/S 724 mmHg 93%
    13:00 +4°C° 2,1 mm 4 m/S 723 mmHg 92%
    14:00 +4°C° 0,6 mm 4 m/S 723 mmHg 92%
    15:00 +4°C° 0,6 mm 3 m/S 723 mmHg 91%
    16:00 +4°C° 0,6 mm 3 m/S 723 mmHg 91%
    17:00 +4°C° 0,5 mm 3 m/S 724 mmHg 92%
    18:00 +4°C° 0,5 mm 3 m/S 724 mmHg 93%
    19:00 +5°C° 0,5 mm 4 m/S 725 mmHg 93%
    20:00 +5°C° 0,1 mm 4 m/S 725 mmHg 90%
    21:00 +5°C° 0,1 mm 4 m/S 725 mmHg 87%
    22:00 +5°C° 0,1 mm 5 m/S 725 mmHg 84%
    23:00 +5°C° 0 mm 5 m/S 726 mmHg 82%

    Morgen, 12 Dezember, Dienstag

    Zeit Temperatur Niederschläge Wind Luftdruck Luftfeuchtigkeit
    00:00 +5°C° 0 mm 5 m/S 726 mmHg 81%
    01:00 +4°C° 0 mm 6 m/S 727 mmHg 80%
    02:00 +3°C° 0,1 mm 6 m/S 728 mmHg 80%
    03:00 +2°C° 0,1 mm 7 m/S 729 mmHg 80%
    04:00 +2°C° 0,1 mm 7 m/S 730 mmHg 81%
    05:00 +2°C° 0,1 mm 7 m/S 732 mmHg 80%
    06:00 +1°C° 0,1 mm 6 m/S 734 mmHg 80%
    07:00 +1°C° 0,1 mm 6 m/S 736 mmHg 80%
    08:00 +1°C° 0 mm 6 m/S 737 mmHg 79%
    09:00 +1°C° 0 mm 6 m/S 739 mmHg 78%
    10:00 0°C° 0 mm 5 m/S 740 mmHg 77%
    11:00 +1°C° 0 mm 5 m/S 741 mmHg 75%
    12:00 +2°C° 0 mm 6 m/S 742 mmHg 73%
    13:00 +2°C° 0 mm 6 m/S 743 mmHg 71%
    14:00 +2°C° 0 mm 5 m/S 743 mmHg 73%
    15:00 +1°C° 0 mm 5 m/S 744 mmHg 76%
    16:00 +1°C° 0 mm 5 m/S 745 mmHg 78%
    17:00 +1°C° 0 mm 4 m/S 745 mmHg 79%
    18:00 0°C° 0 mm 4 m/S 746 mmHg 80%
    19:00 0°C° 0 mm 4 m/S 747 mmHg 81%
    20:00 +1°C° 0 mm 3 m/S 748 mmHg 83%
    21:00 0°C° 0 mm 3 m/S 748 mmHg 84%
    22:00 0°C° 0 mm 3 m/S 749 mmHg 86%
    23:00 0°C° 0 mm 3 m/S 749 mmHg 88%

    übermorgen, 13 Dezember, Mittwoch

    Zeit Temperatur Niederschläge Wind Luftdruck Luftfeuchtigkeit
    00:00 -1°C° 0 mm 3 m/S 749 mmHg 89%
    01:00 -1°C° 0 mm 3 m/S 749 mmHg 91%
    02:00 -1°C° 0 mm 3 m/S 749 mmHg 91%
    03:00 -1°C° 0 mm 3 m/S 749 mmHg 91%
    04:00 -1°C° 0 mm 3 m/S 749 mmHg 91%
    05:00 -1°C° 0 mm 4 m/S 748 mmHg 90%
    06:00 -1°C° 0 mm 4 m/S 748 mmHg 89%
    07:00 -1°C° 0 mm 4 m/S 748 mmHg 88%
    08:00 -1°C° 0 mm 5 m/S 747 mmHg 85%
    09:00 0°C° 0 mm 5 m/S 747 mmHg 83%
    10:00 0°C° 0 mm 5 m/S 747 mmHg 80%
    11:00 +1°C° 0,1 mm 6 m/S 746 mmHg 77%
    12:00 +1°C° 0,1 mm 6 m/S 745 mmHg 74%
    13:00 +2°C° 0,1 mm 6 m/S 744 mmHg 71%
    14:00 +2°C° 0,7 mm 6 m/S 743 mmHg 75%
    15:00 +1°C° 0,7 mm 6 m/S 742 mmHg 79%
    16:00 +1°C° 0,7 mm 6 m/S 741 mmHg 83%
    17:00 +1°C° 0,4 mm 6 m/S 741 mmHg 85%
    18:00 +2°C° 0,4 mm 5 m/S 741 mmHg 86%
    19:00 +2°C° 0,4 mm 5 m/S 740 mmHg 88%
    20:00 +2°C° 0,8 mm 5 m/S 740 mmHg 89%
    21:00 +3°C° 0,8 mm 5 m/S 739 mmHg 90%
    22:00 +3°C° 0,8 mm 6 m/S 738 mmHg 91%
    23:00 +3°C° 1,2 mm 5 m/S 738 mmHg 90%

    14 Dezember, Donnerstag

    Zeit Temperatur Niederschläge Wind Luftdruck Luftfeuchtigkeit
    00:00 +3°C° 1,2 mm 5 m/S 738 mmHg 90%
    01:00 +5°C° 1,2 mm 5 m/S 738 mmHg 90%
    02:00 +3°C° 0,4 mm 5 m/S 738 mmHg 90%
    03:00 +3°C° 0,4 mm 5 m/S 738 mmHg 89%
    04:00 +3°C° 0,4 mm 5 m/S 738 mmHg 89%
    05:00 +3°C° 0 mm 4 m/S 738 mmHg 87%
    06:00 +3°C° 0 mm 4 m/S 738 mmHg 86%
    07:00 +2°C° 0 mm 3 m/S 738 mmHg 84%
    08:00 +1°C° 0 mm 4 m/S 738 mmHg 85%
    09:00 +2°C° 0 mm 5 m/S 737 mmHg 85%
    10:00 +2°C° 0 mm 5 m/S 737 mmHg 85%
    11:00 +3°C° 0 mm 6 m/S 736 mmHg 82%
    12:00 +4°C° 0 mm 7 m/S 735 mmHg 79%
    13:00 +4°C° 0 mm 7 m/S 733 mmHg 76%
    14:00 +4°C° 0,6 mm 7 m/S 733 mmHg 77%
    15:00 +4°C° 0,6 mm 7 m/S 732 mmHg 78%
    16:00 +4°C° 0,6 mm 7 m/S 731 mmHg 79%
    17:00 +3°C° 1,2 mm 6 m/S 731 mmHg 79%
    18:00 +3°C° 1,2 mm 5 m/S 731 mmHg 78%
    19:00 +3°C° 1,2 mm 4 m/S 731 mmHg 78%
    20:00 +1°C° 0,1 mm 4 m/S 731 mmHg 79%
    21:00 +1°C° 0,1 mm 4 m/S 732 mmHg 79%
    22:00 +1°C° 0,1 mm 4 m/S 733 mmHg 80%
    23:00 0°C° 0 mm 4 m/S 734 mmHg 81%

    15 Dezember, Freitag

    Zeit Temperatur Niederschläge Wind Luftdruck Luftfeuchtigkeit
    00:00 0°C° 0 mm 4 m/S 734 mmHg 81%
    01:00 -1°C° 0 mm 4 m/S 735 mmHg 81%
    02:00 -1°C° 0 mm 4 m/S 735 mmHg 81%
    03:00 -1°C° 0 mm 4 m/S 736 mmHg 81%
    04:00 -1°C° 0 mm 4 m/S 736 mmHg 81%
    05:00 -1°C° 0 mm 4 m/S 737 mmHg 83%
    06:00 -1°C° 0 mm 4 m/S 737 mmHg 84%
    07:00 0°C° 0 mm 4 m/S 738 mmHg 85%
    08:00 0°C° 0 mm 4 m/S 738 mmHg 85%
    09:00 0°C° 0 mm 4 m/S 738 mmHg 86%
    10:00 0°C° 0 mm 4 m/S 739 mmHg 86%
    11:00 0°C° 0,1 mm 4 m/S 738 mmHg 85%
    12:00 +1°C° 0,1 mm 4 m/S 738 mmHg 83%
    13:00 +2°C° 0,1 mm 3 m/S 738 mmHg 82%
    14:00 +2°C° 0 mm 3 m/S 738 mmHg 83%
    15:00 +2°C° 0 mm 3 m/S 738 mmHg 84%
    16:00 +3°C° 0 mm 2 m/S 738 mmHg 85%
    17:00 +2°C° 0 mm 2 m/S 738 mmHg 86%
    18:00 +2°C° 0 mm 2 m/S 738 mmHg 87%
    19:00 +2°C° 0 mm 2 m/S 739 mmHg 88%
    20:00 +2°C° 0 mm 2 m/S 739 mmHg 89%
    21:00 +2°C° 0 mm 2 m/S 739 mmHg 90%
    22:00 +1°C° 0 mm 2 m/S 739 mmHg 92%
    23:00 +1°C° 0,1 mm 2 m/S 740 mmHg 92%

    16 Dezember, Samstag

    Zeit Temperatur Niederschläge Wind Luftdruck Luftfeuchtigkeit
    00:00 +1°C° 0,1 mm 2 m/S 740 mmHg 92%
    01:00 +2°C° 0,1 mm 2 m/S 740 mmHg 92%
    02:00 +2°C° 0,1 mm 2 m/S 741 mmHg 92%
    03:00 +2°C° 0,1 mm 2 m/S 741 mmHg 93%
    04:00 +2°C° 0,1 mm 2 m/S 741 mmHg 93%
    05:00 +1°C° 0,1 mm 2 m/S 741 mmHg 93%
    06:00 +1°C° 0,1 mm 2 m/S 742 mmHg 93%
    07:00 -1°C° 0,1 mm 2 m/S 742 mmHg 93%
    08:00 +1°C° 0 mm 2 m/S 743 mmHg 92%
    09:00 +1°C° 0 mm 2 m/S 743 mmHg 91%
    10:00 +1°C° 0 mm 2 m/S 744 mmHg 90%
    11:00 +1°C° 0 mm 2 m/S 744 mmHg 88%
    12:00 +2°C° 0 mm 2 m/S 745 mmHg 86%
    13:00 +1°C° 0 mm 3 m/S 745 mmHg 84%
    14:00 +1°C° 0 mm 3 m/S 745 mmHg 85%
    15:00 +1°C° 0 mm 3 m/S 745 mmHg 86%
    16:00 +1°C° 0 mm 3 m/S 746 mmHg 86%
    17:00 +1°C° 0 mm 3 m/S 746 mmHg 87%
    18:00 +2°C° 0 mm 2 m/S 747 mmHg 88%
    19:00 +2°C° 0 mm 2 m/S 747 mmHg 89%
    20:00 +2°C° 0 mm 2 m/S 748 mmHg 90%
    21:00 0°C° 0 mm 3 m/S 748 mmHg 90%
    22:00 0°C° 0 mm 3 m/S 748 mmHg 91%
    23:00 0°C° 0 mm 3 m/S 748 mmHg 91%
    Mehr zeigen